User: anonymous   Login
Location: Azul
(36.7830°S, 59.8500°W)
Time: 22:13:09
(UTC-03:00)
Language:

DOVE 4 - Orbit

View from above orbital plane
View from above orbital plane
View from above satellite
View from above satellite

Ground track
Ground track

The orbit data is extracted from the following two-line orbital elements,

1 39430U 13066Q   22220.73705288  .00000400  00000-0  80364-4 0  9992
2 39430  97.8045 124.9459 0147714 239.8377 118.8121 14.60292084463923
Epoch (UTC): 08 August 2022 17:41:21
Eccentricity: 0.0147714
inclination: 97.8045°
perigee height: 588 km
apogee height: 796 km
right ascension of ascending node: 124.9459°
argument of perigee: 239.8377°
revolutions per day: 14.60292084
mean anomaly at epoch: 118.8121°
orbit number at epoch: 46392

The dashed part of the orbit path shows where the satellite is in the earth's shadow,  

DLR